[[{"header":{"parameterUnit":"m.s-1","parameterCategory":1,"la1":30.2991,"la2":30.254,"lo1":-89.0895,"lo2":-89.0444,"dy":0.0017,"dx":0.0017,"nx":28,"ny":28,"refTime":"2024-04-07T09:00:00:Z","depth":0,"parameterNumber":2,"parameterNumberName":"U-component_of_WINDS"},"data":[0,0,0,0,0,0,0,0,0,0,0,0,0,0,0,0,0,0,0,0,0,0,0,0,0,0,0,0,0,0,0,0,0,0,0,0,0,0,0,0,0,0,0,0,0,0,0,0,0,0,0,0,0,0,0,0,0,0,-2.5393,-2.5393,0,-2.5401,-2.5401,-2.5401,-2.5368,-2.5367,-2.5366,-2.5365,-2.5376,-2.5377,-2.5378,0,0,0,0,0,0,0,0,0,0,0,0,0,-2.5353,-2.5354,-2.5393,-2.5393,-2.5394,-2.5401,-2.5401,-2.5401,-2.5368,-2.5367,-2.5366,-2.5364,-2.5376,-2.5377,-2.5379,0,0,0,0,0,0,0,0,0,0,0,0,0,-2.5367,-2.5354,-2.5393,-2.5378,-2.5376,-2.5401,-2.5401,-2.5401,-2.5368,-2.5367,-2.5365,-2.5364,-2.5375,-2.5377,-2.5379,-2.542,0,0,-2.5384,-2.5385,0,0,0,0,0,0,0,0,-2.5366,-2.5368,-2.538,-2.5379,-2.5377,-2.5382,-2.5391,-2.5408,-2.5369,-2.5371,-2.5365,-2.5363,-2.5379,-2.5381,-2.5386,-2.542,-2.5421,-2.5384,-2.5386,-2.5386,-2.5387,0,0,0,0,0,0,0,-2.5365,-2.5368,-2.5396,-2.538,-2.5379,-2.5371,-2.5372,-2.5394,-2.5384,-2.5371,-2.5369,-2.537,-2.5378,-2.5384,-2.5386,-2.5421,-2.5384,-2.5386,-2.5387,-2.5388,-2.549,-2.5492,0,0,0,0,0,0,-2.5366,-2.5367,-2.5396,-2.5397,-2.5368,-2.5373,-2.5374,-2.5382,-2.5383,-2.5382,-2.5371,-2.5368,-2.5381,-2.5384,-2.5386,-2.5434,-2.5386,-2.5388,-2.5389,-2.5488,-2.549,-2.5492,0,0,0,0,0,0,-2.5365,-2.5369,-2.5396,-2.5381,-2.5384,-2.5376,-2.5385,-2.5383,-2.5388,-2.5383,-2.5382,-2.5378,-2.538,-2.5383,-2.5411,-2.5434,-2.5389,-2.5391,-2.5487,-2.5489,-2.5491,-2.553,0,0,0,0,0,0,-2.5364,-2.5369,-2.5383,-2.5382,-2.5385,-2.542,-2.5387,-2.5384,-2.5391,-2.5387,-2.539,-2.5389,-2.5379,-2.5409,-2.5413,-2.5435,-2.5392,-2.5485,-2.5488,-2.5491,-2.5527,-2.5534,-2.5539,0,0,0,0,0,-2.5363,-2.5394,-2.5384,-2.5388,-2.5403,-2.5422,-2.5424,-2.5411,-2.5393,-2.5408,-2.5405,-2.5389,-2.5431,-2.5412,-2.5417,-2.544,-2.5483,-2.5487,-2.549,-2.5524,-2.5532,-2.5539,0,0,0,0,0,0,-2.54,-2.5394,-2.5382,-2.5415,-2.5419,-2.5416,-2.5434,-2.5421,-2.5431,-2.5427,-2.5413,-2.5414,-2.5444,-2.5445,-2.5424,-2.548,-2.5454,-2.5459,-2.5478,-2.5486,-2.5492,-2.5491,-2.5393,0,0,0,0,0,-2.5411,-2.5426,-2.5421,-2.545,-2.5452,-2.5443,-2.5451,-2.5441,-2.5445,-2.5447,-2.5446,-2.5452,-2.5466,-2.5476,-2.5489,-2.5527,-2.5527,-2.5545,-2.5552,-2.5557,-2.5561,-2.5581,-2.5589,-2.5504,-2.5504,-2.5504,0,0,-2.5436,-2.5435,-2.5445,-2.5457,-2.5459,-2.5475,-2.5445,-2.5463,-2.5476,-2.545,-2.5476,-2.5476,-2.5482,-2.5515,-2.5529,-2.5516,-2.5585,-2.5562,-2.5566,-2.5567,-2.5586,-2.5594,-2.5601,-2.5507,-2.5506,-2.5506,0,0,-2.5489,-2.549,-2.5514,-2.5516,-2.5519,-2.5513,-2.5519,-2.5519,-2.5517,-2.5543,-2.5524,-2.5539,-2.5565,-2.5569,-2.5575,-2.5631,-2.5616,-2.5636,-2.5668,-2.5688,-2.5695,-2.5701,-2.572,-2.5727,-2.564,-2.564,-2.564,0,-2.552,-2.5542,-2.5528,-2.5548,-2.5554,-2.5531,-2.5555,-2.5559,-2.5567,-2.5572,-2.5558,-2.5589,-2.5591,-2.5625,-2.5638,-2.5644,-2.5651,-2.5635,-2.5695,-2.57,-2.5706,-2.5724,-2.5732,-2.5642,-2.5642,-2.5642,-2.5642,0,-2.558,-2.5596,-2.5615,-2.5622,-2.563,-2.5653,-2.5643,-2.5653,-2.5643,-2.5639,-2.5666,-2.5668,-2.5681,-2.5688,-2.5679,-2.5721,-2.5713,-2.5697,-2.567,-2.5716,-2.5734,-2.5741,-2.5646,-2.5645,-2.5644,-2.5643,0,0,-2.5656,-2.5654,-2.5662,-2.5664,-2.5667,-2.5679,-2.5701,-2.5713,-2.5722,-2.5729,-2.5747,-2.5769,-2.5754,-2.5761,-2.5752,-2.577,-2.5814,-2.5751,-2.5751,-2.5762,-2.586,-2.5872,-2.588,-2.5804,-2.5805,-2.5807,-2.586,0,-2.5707,-2.5742,-2.5731,-2.5767,-2.5782,-2.5761,-2.578,-2.5784,-2.5781,-2.5794,-2.5792,-2.5807,-2.5786,-2.579,-2.5807,-2.5805,-2.5833,-2.5801,-2.5822,-2.5822,-2.582,-2.5889,-2.5902,-2.5951,-2.5866,-2.5867,-2.5868,0,-2.5772,-2.578,-2.5817,-2.5817,-2.5823,-2.584,-2.585,-2.5863,-2.5867,-2.5864,-2.5871,-2.5859,-2.5882,-2.5856,-2.5887,-2.5865,-2.5874,-2.5874,-2.5876,-2.5877,-2.5847,-2.5892,-2.5967,-2.5974,-2.5879,-2.5878,-2.5877,0,-2.5823,-2.5843,-2.5868,-2.5872,-2.5872,-2.5884,-2.5885,-2.5888,-2.5896,-2.5906,-2.5911,-2.5923,-2.593,-2.5941,-2.5932,-2.5914,-2.5965,-2.5938,-2.5963,-2.5964,-2.5974,-2.5974,-2.6052,-2.5981,-2.5981,-2.5981,-2.598,0,-2.5881,-2.5905,-2.5891,-2.5907,-2.5933,-2.592,-2.5947,-2.5945,-2.5948,-2.5964,-2.5947,-2.5963,-2.5951,-2.5966,-2.596,-2.5987,-2.5991,-2.5989,-2.5987,-2.599,-2.599,-2.5995,-2.5991,-2.5983,-2.5982,-2.5982,-2.5981,0,-2.5943,-2.5934,-2.596,-2.5958,-2.5958,-2.5978,-2.5976,-2.5991,-2.5987,-2.6007,-2.6011,-2.6005,-2.6022,-2.6015,-2.6033,-2.6029,-2.6063,-2.6057,-2.6061,-2.6059,-2.6084,-2.6082,-2.6167,-2.6178,-2.6101,-2.6102,-2.6102,0,-2.598,-2.5998,-2.5998,-2.6006,-2.6008,-2.6022,-2.603,-2.6018,-2.6027,-2.6034,-2.6048,-2.6063,-2.6074,-2.6102,-2.61,-2.6113,-2.6107,-2.6136,-2.6109,-2.6112,-2.6107,-2.6106,-2.6108,-2.6142,-2.6142,-2.6143,-2.6144,0,-2.6048,-2.6043,-2.6054,-2.6063,-2.6073,-2.608,-2.6086,-2.6095,-2.6083,-2.6095,-2.611,-2.6119,-2.6137,-2.6152,-2.6164,-2.6167,-2.6154,-2.6152,-2.6159,-2.6162,-2.6163,-2.6162,-2.6075,-2.615,-2.615,-2.6149,-2.6149,-2.6149,-2.6098,-2.6113,-2.6115,-2.6128,-2.6131,-2.6137,-2.615,-2.6148,-2.616,-2.6173,-2.6166,-2.6184,-2.619,-2.6204,-2.6209,-2.6224,-2.6213,-2.6222,-2.6225,-2.6227,-2.623,-2.6161,-2.6226,-2.6226,-2.6226,-2.6226,-2.6226,0,-2.6165,-2.6165,-2.6177,-2.6185,-2.6196,-2.6181,-2.6188,-2.6198,-2.6214,-2.6219,-2.623,-2.6249,-2.6263,-2.6263,-2.6277,-2.6289,-2.6284,-2.6293,-2.6292,-2.6293,-2.6239,-2.6232,-2.6297,-2.6297,-2.6297,-2.6297,-2.6297,-2.6297,-2.62,-2.6224,-2.6219,-2.6245,-2.6245,-2.6262,-2.6267,-2.6273,-2.6277,-2.6298,-2.6309,-2.6308,-2.6312,-2.6326,-2.6339,-2.6338,-2.6344,-2.6356,-2.6353,-2.6303,-2.6296,-2.629,-2.6283,-2.6357,-2.6358,-2.6405,-2.6406,-2.6406]},{"header":{"parameterUnit":"m.s-1","parameterCategory":1,"la1":30.2991,"la2":30.254,"lo1":-89.0895,"lo2":-89.0444,"dy":0.0017,"dx":0.0017,"nx":28,"ny":28,"refTime":"2024-04-07T09:00:00:Z","depth":0,"parameterNumber":3,"parameterNumberName":"V-component_of_WINDS"},"data":[0,0,0,0,0,0,0,0,0,0,0,0,0,0,0,0,0,0,0,0,0,0,0,0,0,0,0,0,0,0,0,0,0,0,0,0,0,0,0,0,0,0,0,0,0,0,0,0,0,0,0,0,0,0,0,0,0,0,3.7904,3.7904,0,3.7933,3.7934,3.7934,3.7892,3.7891,3.7889,3.7888,3.7914,3.7916,3.7918,0,0,0,0,0,0,0,0,0,0,0,0,0,3.7808,3.781,3.7904,3.7904,3.7905,3.7933,3.7934,3.7934,3.7892,3.7891,3.7889,3.7887,3.7913,3.7915,3.7918,0,0,0,0,0,0,0,0,0,0,0,0,0,3.7845,3.7811,3.7904,3.7888,3.7886,3.7933,3.7934,3.7934,3.7893,3.7891,3.7888,3.7886,3.7912,3.7915,3.7918,3.7981,0,0,3.7927,3.7929,0,0,0,0,0,0,0,0,3.7842,3.7848,3.789,3.7889,3.7888,3.7907,3.7909,3.795,3.7893,3.789,3.7888,3.7885,3.7913,3.7916,3.7926,3.7982,3.7983,3.7928,3.793,3.7931,3.7932,0,0,0,0,0,0,0,3.784,3.7847,3.7915,3.789,3.7889,3.7877,3.788,3.7917,3.7913,3.789,3.7887,3.7892,3.7912,3.7923,3.7926,3.7984,3.7928,3.793,3.7932,3.7933,3.8093,3.8095,0,0,0,0,0,0,3.784,3.7845,3.7914,3.7916,3.7859,3.7881,3.7884,3.7903,3.7913,3.7912,3.7893,3.789,3.7919,3.7923,3.7927,3.8001,3.7931,3.7934,3.7936,3.809,3.8093,3.8096,0,0,0,0,0,0,3.7838,3.7847,3.7913,3.788,3.7887,3.7885,3.7906,3.7905,3.7916,3.7915,3.7914,3.7906,3.7917,3.7923,3.7968,3.8002,3.7935,3.7938,3.8088,3.8091,3.8095,3.8151,0,0,0,0,0,0,3.7836,3.7846,3.7871,3.7881,3.7889,3.7956,3.7908,3.7907,3.7922,3.7917,3.7927,3.7926,3.7916,3.7964,3.7971,3.8005,3.794,3.8085,3.8089,3.8094,3.8146,3.8156,3.8165,0,0,0,0,0,3.7832,3.7885,3.7873,3.7881,3.7921,3.7958,3.7962,3.7951,3.7925,3.7949,3.7949,3.7926,3.7997,3.7969,3.7977,3.8012,3.8082,3.8088,3.8093,3.8142,3.8154,3.8164,0,0,0,0,0,0,3.7878,3.7886,3.7872,3.793,3.7944,3.7951,3.7981,3.7964,3.7984,3.7979,3.7962,3.7965,3.8014,3.8017,3.7986,3.8073,3.8035,3.8042,3.8069,3.8081,3.809,3.8088,3.7943,0,0,0,0,0,3.7895,3.7926,3.793,3.798,3.7988,3.7984,3.7999,3.7989,3.8002,3.8007,3.801,3.8022,3.8047,3.8064,3.8087,3.8146,3.8147,3.8174,3.8183,3.8191,3.8197,3.8229,3.8241,3.8114,3.8114,3.8113,0,0,3.793,3.7938,3.7958,3.799,3.7999,3.803,3.7989,3.8023,3.8045,3.8012,3.8056,3.8058,3.8071,3.8123,3.8147,3.8128,3.8233,3.8198,3.8204,3.8206,3.8236,3.8248,3.8258,3.8117,3.8117,3.8116,0,0,3.8009,3.8019,3.8062,3.8073,3.8088,3.8085,3.8095,3.8105,3.8106,3.8149,3.8125,3.8151,3.8194,3.8204,3.8215,3.8299,3.8278,3.8306,3.8355,3.8385,3.8396,3.8404,3.8434,3.8445,3.8313,3.8313,3.8313,0,3.805,3.8098,3.8086,3.8123,3.8137,3.8109,3.8152,3.8163,3.8184,3.8194,3.8173,3.8227,3.8233,3.8288,3.8309,3.8318,3.8329,3.8305,3.8395,3.8404,3.8412,3.844,3.8452,3.8316,3.8316,3.8315,3.8315,0,3.8147,3.818,3.8213,3.8237,3.8254,3.8294,3.8287,3.8306,3.8295,3.8293,3.8338,3.8345,3.8369,3.8381,3.8369,3.8434,3.8422,3.8398,3.836,3.8428,3.8454,3.8465,3.8321,3.832,3.8319,3.8318,0,0,3.8257,3.8274,3.8286,3.8296,3.8311,3.8336,3.8373,3.8398,3.8415,3.8431,3.8462,3.8499,3.8478,3.849,3.8479,3.8506,3.8572,3.8479,3.8479,3.8497,3.8644,3.8662,3.8675,3.8559,3.8561,3.8562,3.8643,0,3.8336,3.8404,3.8394,3.8459,3.8489,3.8463,3.8496,3.8508,3.8507,3.8532,3.853,3.8557,3.8527,3.8534,3.856,3.8559,3.8602,3.8553,3.8587,3.8588,3.8585,3.8689,3.8708,3.8785,3.8654,3.8655,3.8657,0,3.8439,3.846,3.8528,3.8539,3.8551,3.8581,3.8603,3.8627,3.864,3.8637,3.8652,3.8636,3.8672,3.8633,3.8683,3.865,3.8663,3.8665,3.8667,3.867,3.8627,3.8695,3.8808,3.882,3.8673,3.8671,3.867,0,3.8512,3.8558,3.8604,3.8614,3.8627,3.8649,3.8655,3.8666,3.8682,3.87,3.871,3.8732,3.8745,3.8762,3.8752,3.8724,3.8803,3.8763,3.8802,3.8802,3.882,3.8819,3.8938,3.8828,3.8828,3.8828,3.8827,0,3.8603,3.8646,3.8638,3.8666,3.8713,3.8701,3.8747,3.8749,3.8759,3.8787,3.8765,3.8792,3.8777,3.8802,3.8794,3.8837,3.8842,3.8841,3.8838,3.8843,3.8843,3.8852,3.8846,3.8831,3.883,3.8829,3.8829,0,3.8693,3.869,3.8739,3.8748,3.8751,3.8785,3.8792,3.8818,3.8816,3.8852,3.8859,3.8856,3.8884,3.8876,3.8906,3.89,3.8955,3.8945,3.8951,3.8949,3.8988,3.8985,3.9116,3.9133,3.9012,3.9013,3.9014,0,3.8752,3.8784,3.8797,3.8815,3.8824,3.8853,3.8869,3.8858,3.8875,3.8892,3.8916,3.8943,3.8964,3.901,3.9009,3.9032,3.9023,3.9067,3.9026,3.903,3.9024,3.9022,3.9026,3.9075,3.9077,3.9078,3.9079,0,3.8856,3.8852,3.8878,3.8903,3.8923,3.8942,3.8958,3.8974,3.8964,3.8984,3.9014,3.903,3.9061,3.9088,3.9109,3.9113,3.9095,3.9092,3.9102,3.9108,3.911,3.911,3.8974,3.9089,3.9088,3.9087,3.9087,3.9086,3.8932,3.896,3.8974,3.9003,3.9014,3.903,3.9056,3.9057,3.9082,3.9108,3.9099,3.9133,3.9144,3.917,3.9178,3.9203,3.9186,3.9201,3.9204,3.9209,3.9214,3.9106,3.9207,3.9206,3.9206,3.9206,3.9206,0,3.9035,3.9043,3.907,3.9095,3.9117,3.9099,3.9116,3.9136,3.9166,3.9179,3.92,3.9234,3.9259,3.9261,3.9284,3.9304,3.9296,3.9311,3.931,3.9311,3.9227,3.9217,3.9317,3.9317,3.9317,3.9317,3.9317,3.9317,3.9092,3.9139,3.9137,3.9188,3.9195,3.9229,3.9241,3.9255,3.9265,3.9305,3.9326,3.9328,3.9336,3.936,3.9382,3.9382,3.9392,3.941,3.9406,3.9328,3.9317,3.9306,3.9296,3.9412,3.9412,3.9488,3.9489,3.9489]}]]